Location: Unspecified
(0.0000°N, 0.0000°E)
Time: 23:26:43
(UTC+00:00)

Transit 2A Rocket - Visible Passes

Search period start: 31 August 2016 00:00
Search period end: 10 September 2016 00:00
Orbit: 585 x 920 km, 66.7° (Epoch: 31 August)

Date Brightness Start Highest point End Pass type
(mag) Time Alt. Az. Time Alt. Az. Time Alt. Az.
31 Aug 5.2 18:32:26 10° SSW 18:37:53 87° WNW 18:43:48 10° NNE visible
01 Sep 8.0 05:24:04 10° NE 05:26:41 14° ENE 05:29:12 10° E visible
01 Sep 8.3 19:35:33 10° W 19:38:12 13° WNW 19:40:55 10° NW visible
02 Sep 7.5 18:51:10 10° SW 18:55:48 27° WNW 19:00:43 10° NNW visible
04 Sep 7.2 04:58:22 10° NNE 05:02:17 24° ENE 05:05:58 10° ESE visible
05 Sep 8.1 04:18:47 10° NE 04:19:55 11° ENE 04:21:00 10° E visible
05 Sep 8.2 18:27:52 10° WSW 18:31:26 17° WNW 18:35:08 10° NNW visible
06 Sep 4.6 05:15:18 10° NNW 05:20:07 82° WSW 05:24:35 10° SSE visible
07 Sep 5.9 04:33:17 10° N 04:37:52 42° ENE 04:42:04 10° SE visible
08 Sep 7.3 03:52:09 10° NNE 03:55:30 19° ENE 03:58:42 10° ESE visible
09 Sep 4.9 04:51:04 10° NW 04:55:36 44° WSW 04:59:50 10° S visible
